Total_Precipitation_Accumulation
0.00 0.00 0.00 0.00 0.00 0.00 0.02 0.06 0.10 0.06 0.02 0.01 0.02 0.03 0.04 0.04 0.03 0.05 0.04 0.04 0.05 0.07 0.09 0.10 0.10 0.12 0.13 0.16 0.21 0.28 0.35 0.41 0.46 0.51 0.56 0.60 0.63 0.70
0.00 0.00 0.00 0.00 0.00 0.00 0.01 0.02 0.06 0.08 0.04 0.01 0.01 0.03 0.06 0.06 0.05 0.06 0.07 0.09 0.11 0.11 0.12 0.13 0.16 0.19 0.21 0.22 0.22 0.25 0.33 0.40 0.43 0.46 0.50 0.54 0.58 0.64
0.00 0.00 0.00 0.00 0.00 0.00 0.00 0.01 0.01 0.04 0.05 0.01 0.00 0.01 0.04 0.05 0.05 0.06 0.06 0.06 0.07 0.09 0.12 0.14 0.16 0.20 0.23 0.26 0.26 0.27 0.32 0.38 0.42 0.46 0.51 0.56 0.58 0.59
0.00 0.00 0.00 0.00 0.00 0.00 0.00 0.00 0.00 0.02 0.05 0.05 0.01 0.00 0.01 0.03 0.04 0.04 0.05 0.07 0.06 0.07 0.11 0.13 0.16 0.20 0.24 0.25 0.26 0.28 0.30 0.33 0.37 0.40 0.43 0.47 0.52 0.57
0.00 0.00 0.00 0.00 0.00 0.00 0.00 0.00 0.01 0.02 0.05 0.09 0.04 0.02 0.02 0.02 0.03 0.03 0.04 0.05 0.06 0.07 0.09 0.11 0.16 0.20 0.24 0.25 0.26 0.26 0.26 0.28 0.32 0.36 0.40 0.45 0.50 0.54
0.00 0.00 0.00 0.00 0.00 0.00 0.00 0.01 0.03 0.05 0.06 0.09 0.10 0.08 0.05 0.03 0.05 0.06 0.05 0.05 0.05 0.05 0.06 0.07 0.09 0.12 0.14 0.16 0.20 0.21 0.23 0.27 0.33 0.40 0.45 0.49 0.51 0.52
0.00 0.00 0.00 0.00 0.00 0.01 0.03 0.04 0.05 0.08 0.14 0.17 0.15 0.12 0.08 0.07 0.07 0.07 0.08 0.07 0.04 0.04 0.04 0.03 0.04 0.05 0.06 0.09 0.15 0.20 0.25 0.34 0.44 0.55 0.66 0.72 0.72 0.69
0.00 0.00 0.00 0.00 0.00 0.02 0.04 0.06 0.11 0.18 0.24 0.25 0.20 0.14 0.07 0.05 0.07 0.11 0.15 0.18 0.12 0.04 0.06 0.04 0.03 0.04 0.07 0.12 0.19 0.26 0.32 0.40 0.47 0.56 0.63 0.66 0.68 0.72
0.00 0.00 0.00 0.00 0.01 0.01 0.02 0.07 0.12 0.16 0.18 0.17 0.14 0.09 0.09 0.11 0.19 0.26 0.23 0.21 0.13 0.04 0.06 0.06 0.04 0.06 0.08 0.14 0.25 0.29 0.36 0.44 0.50 0.54 0.58 0.59 0.59 0.60
0.00 0.00 0.00 0.01 0.02 0.05 0.10 0.14 0.09 0.06 0.05 0.05 0.08 0.12 0.14 0.14 0.18 0.23 0.21 0.17 0.09 0.04 0.07 0.14 0.10 0.10 0.09 0.13 0.23 0.25 0.29 0.38 0.46 0.50 0.50 0.48 0.47 0.49
0.00 0.01 0.03 0.03 0.04 0.15 0.21 0.18 0.08 0.02 0.02 0.06 0.11 0.11 0.09 0.07 0.09 0.24 0.34 0.34 0.21 0.06 0.06 0.12 0.10 0.11 0.15 0.17 0.22 0.26 0.27 0.32 0.39 0.42 0.40 0.37 0.37 0.40
0.02 0.02 0.03 0.04 0.12 0.21 0.19 0.14 0.08 0.05 0.08 0.05 0.03 0.01 0.01 0.02 0.08 0.22 0.52 0.69 0.45 0.22 0.09 0.19 0.21 0.25 0.34 0.21 0.21 0.24 0.25 0.30 0.34 0.36 0.35 0.33 0.33 0.30
0.06 0.03 0.02 0.09 0.17 0.17 0.11 0.06 0.08 0.13 0.09 0.03 0.01 0.01 0.01 0.02 0.04 0.08 0.28 0.68 0.79 0.45 0.15 0.37 0.43 0.31 0.39 0.29 0.24 0.26 0.34 0.45 0.50 0.50 0.47 0.41 0.35 0.30
0.06 0.04 0.06 0.14 0.12 0.06 0.03 0.04 0.09 0.08 0.03 0.03 0.03 0.03 0.03 0.03 0.03 0.05 0.09 0.22 0.47 0.55 0.32 0.47 0.62 0.44 0.46 0.39 0.33 0.34 0.39 0.60 0.85 0.88 0.80 0.68 0.54 0.44
0.08 0.11 0.12 0.07 0.03 0.01 0.01 0.03 0.03 0.02 0.06 0.12 0.10 0.06 0.04 0.04 0.05 0.07 0.08 0.12 0.20 0.26 0.31 0.40 0.55 0.52 0.53 0.53 0.45 0.43 0.54 0.66 1.00 1.24 1.11 0.87 0.64 0.50
0.12 0.12 0.05 0.01 0.00 0.00 0.01 0.00 0.01 0.02 0.11 0.19 0.16 0.08 0.04 0.06 0.08 0.16 0.24 0.26 0.31 0.28 0.29 0.36 0.45 0.52 0.49 0.46 0.54 0.56 0.69 0.97 1.20 1.39 1.23 0.94 0.72 0.56
0.12 0.04 0.00 0.00 0.01 0.01 0.00 0.00 0.01 0.02 0.05 0.10 0.15 0.14 0.10 0.09 0.12 0.21 0.36 0.44 0.48 0.43 0.38 0.33 0.29 0.32 0.39 0.45 0.51 0.56 0.73 0.99 1.21 1.31 1.05 0.86 0.85 0.74
0.04 0.01 0.01 0.02 0.02 0.02 0.02 0.03 0.02 0.04 0.09 0.16 0.19 0.19 0.21 0.21 0.22 0.26 0.41 0.52 0.52 0.48 0.45 0.38 0.30 0.26 0.28 0.33 0.52 0.73 0.78 0.96 1.07 1.00 0.67 0.54 0.72 0.71
0.01 0.03 0.04 0.03 0.03 0.03 0.05 0.06 0.06 0.06 0.13 0.22 0.27 0.28 0.29 0.28 0.31 0.37 0.44 0.47 0.46 0.41 0.33 0.27 0.25 0.28 0.29 0.30 0.33 0.60 0.80 0.80 0.71 0.65 0.52 0.44 0.61 0.66
0.03 0.05 0.04 0.03 0.04 0.06 0.08 0.10 0.11 0.11 0.16 0.23 0.28 0.31 0.34 0.36 0.38 0.41 0.45 0.45 0.38 0.24 0.14 0.08 0.12 0.22 0.34 0.39 0.40 0.58 0.64 0.59 0.46 0.48 0.49 0.46 0.55 0.53
0.04 0.03 0.03 0.04 0.06 0.08 0.10 0.12 0.16 0.20 0.24 0.32 0.34 0.36 0.38 0.41 0.40 0.39 0.37 0.29 0.19 0.12 0.08 0.06 0.10 0.17 0.23 0.19 0.23 0.39 0.53 0.53 0.40 0.39 0.35 0.29 0.31 0.32
0.04 0.03 0.03 0.04 0.07 0.11 0.13 0.16 0.19 0.22 0.26 0.31 0.35 0.38 0.40 0.41 0.38 0.29 0.20 0.14 0.11 0.10 0.08 0.06 0.05 0.06 0.08 0.10 0.17 0.25 0.32 0.31 0.27 0.21 0.22 0.20 0.22 0.42
0.04 0.05 0.05 0.06 0.10 0.13 0.15 0.17 0.20 0.24 0.30 0.36 0.38 0.36 0.34 0.27 0.20 0.15 0.13 0.11 0.10 0.08 0.06 0.04 0.04 0.04 0.07 0.08 0.11 0.14 0.16 0.16 0.13 0.16 0.31 0.30 0.29 0.36